Regional Weather Roundup
Issued by NWS Upton, NY

Current Version | Previous Version | Graphics & Text | Print | Product List | Glossary Off
Versions: 1 2 3 4 5 6 7 8 9 10 11 12 13 14 15 16 17 18 19 20 21 22 23 24 25 26 27

000
ASUS41 KOKX 181708
RWROKX

Regional Weather Roundup
National Weather Service New York NY
1200 PM EST MON DEC 18 2017

Note: "FAIR" indicates few or no clouds below 12,000 feet with no
significant weather and/or obstructions to visibility.

NYZ071-072-176-178-NJZ106-104-181800-
New York City Metro Area

CITY           SKY/WX    TMP DP  RH WIND       PRES   REMARKS
Central Park   MOSUNNY   42  34  73 W5        30.06F
Bronx Bot Gard   N/A     41  32  70 CALM      30.05F
Bronx Lehman C   N/A     39  32  75 NW2         N/A
LaGuardia Arpt CLOUDY    40  33  76 NE5       30.04F
Queens College   N/A     41  34  75 N2          N/A
Kennedy Intl   PTSUNNY   43  37  79 N3        30.05F
Breezy Point     N/A     41 N/A N/A NE3         N/A
Brooklyn Coll    N/A     43  36  75 NW1         N/A
Staten Island    N/A     39  34  81 N3          N/A
Newark/Liberty CLOUDY    43  35  73 N6        30.05F
Teterboro      CLOUDY    40  31  70 NW6       30.05F
$$

NYZ177-179-078>081-181800-
Long Island New York

CITY           SKY/WX    TMP DP  RH WIND       PRES   REMARKS
Jones Beach      N/A     41 N/A N/A N6          N/A
Wantagh          N/A     45  37  76 NW2         N/A
Matinecock Pt    N/A     37 N/A N/A E8          N/A  WCI  31
Farmingdale    CLOUDY    43  38  82 N6        30.04F
MacArthur/ISP  CLOUDY    42  41  96 N3        30.03F FOG
Shirley        CLOUDY    38  38 100 CALM      30.04F FOG
Mt Sinai Harb    N/A    N/A N/A N/A MISG        N/A
Westhampton    LGT RAIN  38  35  89 W5        30.04F FOG     WCI  34
East Hampton   CLOUDY    39  37  94 CALM      30.03F
Southold         N/A     39  36  87 NE2         N/A
Montauk          N/A     45  39  79 CALM      30.04F
$$

NYZ052-065-067-181800-
Hudson Valley

CITY           SKY/WX    TMP DP  RH WIND       PRES   REMARKS
White Plains   PTSUNNY   38  32  79 CALM      30.03F
Larchmont Harb   N/A     36 N/A N/A N5          N/A  WCI  32
Croton On Huds   N/A     36 N/A N/A W6          N/A  WCI  31
Somers           N/A     34  28  80 N1          N/A
Brewster         N/A     32  25  74 NW3         N/A
Newburgh       CLOUDY    32  28  86 CALM      30.06F
Montgomery     CLOUDY    33  27  78 S3        30.03F
Otisville        N/A     34  30  86 SW2         N/A
Warwick          N/A     34  28  80 SW2         N/A
Suffern          N/A     36  32  87 W3          N/A
Poughkeepsie   CLOUDY    34  24  67 CALM      30.05F
Albany         CLOUDY    28  19  69 NW3       30.02F
$$

NJZ001-105-106-008-010-013-015-019>022-104-181800-
New Jersey

CITY           SKY/WX    TMP DP  RH WIND       PRES   REMARKS
Newark/Liberty CLOUDY    43  35  73 N6        30.05F
Teterboro      CLOUDY    40  31  70 NW6       30.05F
Caldwell       CLOUDY    38  33  82 N3        30.06F
Somerville     CLOUDY    42  36  79 NW6       30.04F
Linden         FAIR      42  34  71 CALM      30.05F
Perth Amboy      N/A     41 N/A N/A CALM        N/A
Sussex         CLOUDY    34  29  82 CALM      30.04F HAZE
Andover        NOT AVBL
Trenton        CLOUDY    46  35  65 NW6       30.05F
Millville      SUNNY     50  38  63 W7        30.05F
Atlantic City  SUNNY     53  37  54 W9        30.04F
Wrightstown    SUNNY     48  37  65 NW6       30.02F
Toms River     SUNNY     51  37  58 W9        30.04F
Belmar         SUNNY     48  37  65 W7        30.05F
$$

PAZ047>061-062-071-181800-
Eastern Pennsylvania

CITY           SKY/WX    TMP DP  RH WIND       PRES   REMARKS
Philadelphia   PTSUNNY   45  35  68 W6        30.06F
Allentown      CLOUDY    40  33  76 W6        30.05F HAZE
Scranton       CLOUDY    38  32  79 W5        30.01F HAZE    WCI  34
$$

CTZ002-004>006-009-010-012-RIZ004-006-007-MAZ004-011-015-181800-
Southern New England

 In CT

CITY           SKY/WX    TMP DP  RH WIND       PRES   REMARKS
Bradley Intl   CLOUDY    31  16  54 CALM      30.07F
Hartford       FLURRIES  31  17  56 N6        30.08F WCI  25
Danbury        CLOUDY    34  24  67 CALM      30.05F
Wtrbury/Oxford CLOUDY    33  24  69 CALM      30.04F
Norwalk Harbor   N/A     36 N/A N/A N5          N/A  WCI  32
Bridgeport     NOT AVBL
Meriden        CLOUDY    32  19  58 NW6       30.06F WCI  26
New Haven      CLOUDY    35  22  58 N7        30.05F WCI  29
Chester        CLOUDY    36  25  64 CALM      30.03F
Groton         CLOUDY    38  29  70 CALM      30.04F
Willimantic    CLOUDY    34  21  59 CALM      30.06F

 In RI

CITY           SKY/WX    TMP DP  RH WIND       PRES   REMARKS
Providence     CLOUDY    33  21  61 CALM      30.07F
Block Island   CLOUDY    44  38  79 SE8       30.04F
Westerly       CLOUDY    39  27  62 N3        30.05F

In MA

CITY           SKY/WX    TMP DP  RH WIND       PRES   REMARKS
Boston         CLOUDY    31  15  52 CALM      30.07F
Worcester      CLOUDY    28  17  63 SW8       30.01F WCI  20
Westfield      CLOUDY    28  13  53 CALM      30.06F
Provincetown   CLOUDY    35  23  61 S7        30.07F WCI  29
Nantucket      CLOUDY    38  28  67 SE8       30.07F WCI  32
$$

ANZ330-335-338-340-345-350-353-355-181800-
Coastal Marine Observations


STATION/POSITION TIME  SKY/WX   TEMP    WIND        PRES    VSBY  WAVE
                                AIR SEA DIR/SP/G                  HT/PER
                 (UTC)          (F)     (DEG/KT/KT) (MB)    (MI)  (FT/S)
NY Harb Entrance 1650            43 51  340/ 10/ 12 1016.8          2/10
20 S Fire Island 1550            49 51  330/  2/  4 1017.7          2/ 4
15 E Barnegat Li 1630               49                N/A           2/10
Hudson Canyon    1550            53 54  240/ 12/ 14 1017.1          2/10
Kings Point      1642            38 42   60/  4/  5 1018.2
Execution Rocks  1615            38      30/  4/  8   N/A
Western LI Sound NOT AVBL
Central LI Sound 1600            41      80/  8/ 10   N/A           1
Robbins Reef     1648            39     300/  6/  8 1018.3
$$


>>>>>>>>>>>>>>>>>>>>>>>>>>>> KEY <<<<<<<<<<<<<<<<<<<<<<<<<<<
>                                                          <
>     SKY/WX - Sky Condition/Present Weather               <
>     TMP    - Temperature in Fahrenheit                   <
>     DP     - Dew Point in Fahrenheit                     <
>     RH     - Relative Humidity in Percent                <
>     WIND   - Direction (from) and Speed in MPH           <
>     PRES   - Mean Sea Level Pressure (inches of Hg)      <
>     WCI    - Wind Chill Index                            <
>     VSB    - Visibility in Miles                         <
>     HX     - Heat Index                                  <
>     TC     - Temperature in Celsius                      <
>     VRB    - Varibale Wind Direction                     <
>                                                          <
>>>>>>>>>>>>>>>>>>>>>>>>>>>> KEY <<<<<<<<<<<<<<<<<<<<<<<<<<<




USA.gov is the U.S. government's official web portal to all federal, state and local government web resources and services.